Tracking 17780 objects as of 28-July-2016
HD Live streaming from Space Station
objects crossing your sky now

COSMOS 970 DEB

Track COSMOS 970 DEB now!
10-day predictions


NORAD ID: 10563
Int'l Code: 1977-121E
Perigee: 868.8 km
Apogee: 1,031.1 km
Inclination: 65.8 °
Period: 103.9 minutes
Semi major axis: 7320 km
RCS: 0.0231 m2 (small)
Launch date: December 21, 1977
Source: Commonwealth of Independent States (former USSR) (CIS)
Launch site: TYURATAM MISSILE AND SPACE COMPLEX (TTMTR)

Note: This is SATELLITE DEBRIS
Your satellite tracking list
Your tracking list is empty





NASA's NSSDC Master Catalog

Two Line Element Set (TLE):
1 10563U 77121E   16209.87434048 +.00000267 +00000-0 +29016-3 0  9995
2 10563 065.8496 114.4426 0110868 321.1143 038.1986 13.85968090936132
Source of the keplerian elements: AFSPC

N2YO: 1166